XR-1 (ICEYE-X10) (47507 NORAD) Tracking and Keplerian Element Data

This shows tracking and keplerian element data for the satellite.

Feedback or suggestion? Click here.




ElementValue
Catalog47507
NameXR-1 (ICEYE-X10)
Epoch Orbit22393
Epoch Day34.74384667
Epoch Year2025
RAAN96.3658
Inclination97.3055
Eccentricity0.0007996
Argument of Perigee126.5137
Mean Anonmoly233.6855
Mean Motion15.55770392
Decay Rate0.00077477
L11 47507U 21006CY 25034.74384667 .00077477 00000+0 11145-2 0 9996
L22 47507 97.3055 96.3658 0007996 126.5137 233.6855 15.55770392223932



Live tracking and technical data element details for XR-1 (ICEYE-X10) (NORAD 47507). XR-1 (ICEYE-X10) can be tracked NOW for your location showing map with azimuth and elevation plus other details from your city location.







IsCatalogInMostPopularTable: catalog: 47507, numindb: 151
Update: records affected: 1



GetName: 47507 XR-1 (ICEYE-X10)

Hit Count: updated at: Wed, 18 Jun 2025 04:52:59 GMT